Regional Weather Roundup
Issued by NWS

Home | Current Version | Previous Version | Graphics & Text | Print | Product List | Glossary On
Versions: 1 2 3 4 5 6 7 8 9 10 11 12 13 14 15 16 17 18 19 20 21 22 23 24 25 26 27 28 29 30 31 32 33 34 35 36 37 38 39 40 41 42 43 44 45 46 47 48 49 50
080
ASUS45 KBOU 201010
RWRCO

WEATHER ROUNDUP FOR COLORADO
NATIONAL WEATHER SERVICE PUEBLO CO
400 AM MDT FRI APR 20 2018

NOTE: "FAIR" INDICATES FEW OR NO CLOUDS BELOW 12000 FEET WITH NO
SIGNIFICANT WEATHER AND/OR OBSTRUCTIONS TO VISIBILITY.

COZ001>005-013-030-031-201100-
...NORTHWEST COLORADO...

CITY           SKY/WX    TMP DP  RH WIND       PRES   REMARKS
CRAIG          CLOUDY    47  36  65 SW10      29.83R
HAYDEN         CLOUDY    44  31  60 SW6       29.83S
MEEKER         CLOUDY    44  38  79 E8        29.84S
RABBIT EARS PA NOT AVBL
STEAMBOAT SPGS FAIR      42  28  58 CALM      29.83S
WALDEN         FAIR      34  18  51 SE3       29.90S
$$

COZ006>008-011-201100-
...WEST CENTRAL VALLEYS...

CITY           SKY/WX    TMP DP  RH WIND       PRES   REMARKS
GRAND JUNCTION CLOUDY    57  17  21 S15       29.79S
MONTROSE       CLOUDY    48  24  39 MISG      29.89R
EAGLE          CLOUDY    49  32  52 W13G18    29.84F
RIFLE          LGT RAIN  51  32  48 CALM      29.82R
DELTA          NOT AVBL
NUCLA          CLOUDY    48  16  27 S21G30    29.88R
$$

COZ017>023-064>068-201100-
...SOUTHWEST COLORADO...

CITY           SKY/WX    TMP DP  RH WIND       PRES   REMARKS
DURANGO        CLOUDY    45  12  26 W6        29.87R
CORTEZ         MOCLDY    45  13  27 S8        29.85S
PAGOSA SPRINGS RAIN      42  31  64 W13       29.89S
TELLURIDE      LGT SNOW  30  28  93 CALM      29.95R
WOLF CREEK PAS CLOUDY    27  25  93 S24G44    29.96F WCI  12
$$

COZ009-010-012-014-032>034-037-058>063-201100-
...CENTRAL COLORADO...

CITY           SKY/WX    TMP DP  RH WIND       PRES   REMARKS
ASPEN          LGT RAIN  40  35  83 SE8       29.86F
BUENA VISTA    CLOUDY    39  32  75 NW3       29.93F
COPPER MTN     NOT AVBL
BERTHOUD PASS  FAIR      25  14  63 S38G60    30.03F WCI   6
COTTONWOOD PAS CLOUDY    39  30  70 SE8G18    29.97S
GUNNISON       LGT RAIN  37  34  89 S3        29.87F
KREMMLING      FAIR      50  27  40 NW3       29.88R
LEADVILLE      CLOUDY    29  29 100 CALM      29.94F FOG
MONARCH PASS   LGT SNOW  28  23  80 S28G39    30.10F WCI  13
SALIDA         CLOUDY    48  25  40 SE8G17    29.98F
SUNLIGHT       LGT SNOW  28  28 100 SW9       29.96F VSB 3/4 WCI  20
WILKERSON PASS CLOUDY    32  18  55 SW6       30.07F WCI  26
$$

COZ069>075-201100-
...SAN LUIS VALLEY/SANGRE DE CRISTO MOUNTAINS...

CITY           SKY/WX    TMP DP  RH WIND       PRES   REMARKS
ALAMOSA        MOCLDY    43  24  47 S8        29.88F
DEL NORTE      DRIZZLE   40  26  55 SE15      29.87F
LA VETA PASS   FAIR      41  25  52 S29G48    30.09F
SAGUACHE       NOT AVBL
$$

COZ035-036-038>040-201100-
...NORTHERN COLORADO FRONT RANGE...

CITY           SKY/WX    TMP DP  RH WIND       PRES   REMARKS
DENVER INTL AP FAIR      42  21  43 S13       29.91S
DMNS CITY PARK NOT AVBL
AURORA         MOCLDY    46  22  39 S12       29.91R
FRONT RANGE AP FAIR      44  23  43 SE17G24   29.92S
ERIE MUNI ARPT FAIR      40  25  55 W6        29.96F
BOULDER MUN AP FAIR      43  25  49 N8        29.91S
CENTENNIAL     MOCLDY    45  24  43 S9        29.91R
BROOMFIELD     FAIR      41  25  52 NW16      29.91S
LOVELAND       FAIR      39  26  59 N8        29.94S
LONGMONT       FAIR      45  26  47 N9        29.93S
$$

COZ041-046-047-076>085-087-088-201100-
...PIKES PEAK/PALMER DIVIDE AND SOUTHERN FOOTHILLS...

CITY           SKY/WX    TMP DP  RH WIND       PRES   REMARKS
COLO. SPRINGS  FAIR      43  20  39 SE14      29.96S
A. F. ACADEMY  FAIR      41  19  42 S13       29.95F
SCHRIEVER AFB  NOT AVBL
CHEYENNE MTN   NOT AVBL
ELLICOTT         N/A    N/A N/A N/A SE22G29   29.94F
FALCON         FAIR      40  18  41 SE15G21   29.98F
FORT CARSON    FAIR      44  20  37 SE7       29.93F
LIMON          FAIR      37  24  59 SE28G38   29.99F
MONUMENT HILL  FAIR      37  19  48 SE25G32   29.94F
CANON CITY     FAIR      52  27  37 NE23      29.86F
WALSENBURG     FAIR      54  25  32 S23G36    29.87F
TRINIDAD       FAIR      50  19  29 S24G36    29.93F
$$

COZ042>045-048>051-090-091-201100-
...NORTHEAST COLORADO...

CITY           SKY/WX    TMP DP  RH WIND       PRES   REMARKS
GREELEY ARPT   FAIR      41  25  53 SE17      29.94S
AKRON          FAIR      39  27  62 SE23G32   30.01R
BURLINGTON     FAIR      39  27  62 SE26G40   30.08F
WRAY           FAIR      41  28  60 SE21G30   30.10F
YUMA           NOT AVBL
STERLING       NOT AVBL
HOLYOKE        FAIR      41  28  60 SE21G28   30.11F
FORT MORGAN    FAIR      37  24  58 E8        30.00R
$$

COZ086-089-092>099-201100-
...SOUTHEAST COLORADO...

CITY           SKY/WX    TMP DP  RH WIND       PRES   REMARKS
PUEBLO         FAIR      55  22  27 SE30G43   29.86F
LA JUNTA       FAIR      53  24  32 S21G30    30.01S
LAMAR          FAIR      44  26  49 E12       30.06F
SPRINGFIELD      N/A     44  27  51 SE21      30.10R
$$





USA.gov is the U.S. government's official web portal to all federal, state and local government web resources and services.